DWI7104 MDPC-MMSM

Flight info

Callsign DWI7104
Flight time N/A
Altitude 34000
Route ETBOD2W ETBOD UA890 PAP UL577 ITMAD/N0468F360 UL577 CZM UJ9 CZA UT20 UBVOV UT101 UMAVO UT169 VITOS VITOS1R
Aircraft B38M/M-SDE1FGHILORVWXY/HB1

Departure

Time N/A
Airport Punta Cana International Airport (MDPC)

Arrival

Time 2026-04-23 17:47
Airport Felipe Ángeles International Airport (MMSM)
Time Latitude Longitude Altitude Speed Heading
2026-04-23 16:28 20.66242 -89.05621 35983 ft 405 kts 271°
2026-04-23 16:28 20.66336 -89.08631 35984 ft 405 kts 271°
2026-04-23 16:29 20.66562 -89.14642 35987 ft 405 kts 271°
2026-04-23 16:29 20.66754 -89.20661 35982 ft 406 kts 271°
2026-04-23 16:30 20.66934 -89.26642 35987 ft 406 kts 271°
2026-04-23 16:30 20.67113 -89.32683 35984 ft 406 kts 271°
2026-04-23 16:31 20.67290 -89.38712 35984 ft 406 kts 271°
2026-04-23 16:31 20.67464 -89.44745 35984 ft 406 kts 271°
2026-04-23 16:32 20.67637 -89.50784 35986 ft 407 kts 271°
2026-04-23 16:32 20.67807 -89.56827 35984 ft 407 kts 271°
2026-04-23 16:33 20.67975 -89.62833 35984 ft 407 kts 271°
2026-04-23 16:33 20.68141 -89.68867 35981 ft 407 kts 271°
2026-04-23 16:34 20.68305 -89.74931 35984 ft 408 kts 271°
2026-04-23 16:34 20.68468 -89.80979 35978 ft 408 kts 271°
2026-04-23 16:35 20.68628 -89.87026 35976 ft 408 kts 271°
2026-04-23 16:35 20.68786 -89.93093 35967 ft 408 kts 271°
2026-04-23 16:36 20.68942 -89.99143 35967 ft 408 kts 271°
2026-04-23 16:36 20.69096 -90.05183 35965 ft 410 kts 272°
2026-04-23 16:37 20.69250 -90.11323 35961 ft 410 kts 271°
2026-04-23 16:37 20.69401 -90.17419 35956 ft 411 kts 271°
2026-04-23 16:38 20.69549 -90.23501 35961 ft 411 kts 271°
2026-04-23 16:38 20.69696 -90.29611 35957 ft 411 kts 271°
2026-04-23 16:39 20.69839 -90.35672 35958 ft 411 kts 271°
2026-04-23 16:39 20.69982 -90.41777 35956 ft 411 kts 271°
2026-04-23 16:40 20.70124 -90.47886 35948 ft 411 kts 271°
2026-04-23 16:40 20.70263 -90.53997 35950 ft 412 kts 271°
2026-04-23 16:41 20.70396 -90.60117 35956 ft 412 kts 271°
2026-04-23 16:41 20.70530 -90.66228 35953 ft 412 kts 271°
2026-04-23 16:42 20.70660 -90.72312 35954 ft 412 kts 271°
2026-04-23 16:42 20.70790 -90.78434 35952 ft 412 kts 271°
2026-04-23 16:43 20.70917 -90.84557 35956 ft 412 kts 271°
2026-04-23 16:43 20.71043 -90.90680 35951 ft 412 kts 271°
2026-04-23 16:44 20.71166 -90.96807 35956 ft 413 kts 271°
2026-04-23 16:44 20.71287 -91.02943 35954 ft 413 kts 271°
2026-04-23 16:45 20.71406 -91.09047 35957 ft 413 kts 271°
2026-04-23 16:45 20.71522 -91.15172 35950 ft 413 kts 271°
2026-04-23 16:46 20.71637 -91.21322 35950 ft 413 kts 271°
2026-04-23 16:46 20.71748 -91.27399 35957 ft 413 kts 271°
2026-04-23 16:47 20.71840 -91.32479 35958 ft 413 kts 271°
2026-04-23 16:47 20.71949 -91.38639 35946 ft 413 kts 271°
2026-04-23 16:48 20.72055 -91.44777 35958 ft 413 kts 271°
2026-04-23 16:48 20.72176 -91.51915 35954 ft 413 kts 271°
2026-04-23 16:49 20.72261 -91.57055 35955 ft 413 kts 271°
2026-04-23 16:49 20.72361 -91.63192 35954 ft 413 kts 271°
2026-04-23 16:50 20.72458 -91.69281 35947 ft 413 kts 271°
2026-04-23 16:50 20.72554 -91.75427 35951 ft 413 kts 271°
2026-04-23 16:51 20.72647 -91.81582 35946 ft 414 kts 271°
2026-04-23 16:51 20.72738 -91.87733 35947 ft 414 kts 270°
2026-04-23 16:52 20.72827 -91.93837 35950 ft 414 kts 270°
2026-04-23 16:52 20.72914 -91.99991 35947 ft 414 kts 270°
2026-04-23 16:53 20.72999 -92.06135 35949 ft 414 kts 270°
2026-04-23 16:53 20.73081 -92.12295 35947 ft 414 kts 270°
2026-04-23 16:54 20.73162 -92.18441 35943 ft 414 kts 270°
2026-04-23 16:54 20.73240 -92.24590 35943 ft 414 kts 270°
2026-04-23 16:55 20.73316 -92.30731 35943 ft 413 kts 270°
2026-04-23 16:55 20.73389 -92.36838 35944 ft 413 kts 270°
2026-04-23 16:56 20.73461 -92.42978 35943 ft 413 kts 270°
2026-04-23 16:56 20.73530 -92.49126 35944 ft 413 kts 270°
2026-04-23 16:57 20.73597 -92.55264 35943 ft 413 kts 270°
2026-04-23 16:57 20.73662 -92.61404 35944 ft 413 kts 270°
2026-04-23 16:58 20.73746 -92.70223 35942 ft 413 kts 269°
2026-04-23 16:58 20.73850 -92.82428 35939 ft 413 kts 269°
2026-04-23 16:59 20.73967 -92.92417 35942 ft 413 kts 270°
2026-04-23 16:59 20.74019 -93.03808 35939 ft 413 kts 270°
2026-04-23 17:00 20.74134 -93.16106 35938 ft 413 kts 270°
2026-04-23 17:00 20.74243 -93.27308 35941 ft 412 kts 269°
2026-04-23 17:01 20.74309 -93.37523 35940 ft 412 kts 269°
2026-04-23 17:01 20.74346 -93.49716 35939 ft 412 kts 270°
2026-04-23 17:02 20.74423 -93.61954 35942 ft 412 kts 269°
2026-04-23 17:02 20.74445 -93.71128 35946 ft 412 kts 269°
2026-04-23 17:03 20.74507 -93.81599 35999 ft 412 kts 272°
2026-04-23 17:03 20.74517 -93.87793 35940 ft 421 kts 273°
2026-04-23 17:04 20.74518 -93.98235 35936 ft 425 kts 274°
2026-04-23 17:04 20.74586 -94.10780 35935 ft 426 kts 273°
2026-04-23 17:05 20.74565 -94.23488 35931 ft 426 kts 272°
2026-04-23 17:05 20.74600 -94.36166 35938 ft 426 kts 273°
2026-04-23 17:06 20.74596 -94.48852 35936 ft 427 kts 272°
2026-04-23 17:06 20.74583 -94.61544 35931 ft 427 kts 272°
2026-04-23 17:07 20.74550 -94.74150 35931 ft 427 kts 273°
2026-04-23 17:07 20.74554 -94.84539 35950 ft 428 kts 272°
2026-04-23 17:08 20.74530 -94.90893 35942 ft 428 kts 272°
2026-04-23 17:08 20.74511 -94.97256 35946 ft 428 kts 273°
2026-04-23 17:09 20.73814 -95.03590 35936 ft 433 kts 263°
2026-04-23 17:09 20.72338 -95.11680 35943 ft 433 kts 262°
2026-04-23 17:10 20.70038 -95.24258 35937 ft 434 kts 263°
2026-04-23 17:10 20.67678 -95.36904 35934 ft 435 kts 261°
2026-04-23 17:11 20.65324 -95.49595 35934 ft 436 kts 261°
2026-04-23 17:11 20.63552 -95.59089 35931 ft 436 kts 262°
2026-04-23 17:12 20.61185 -95.71811 35928 ft 436 kts 262°
2026-04-23 17:12 20.58763 -95.84523 35928 ft 437 kts 261°
2026-04-23 17:13 20.57011 -95.93894 35923 ft 437 kts 262°
2026-04-23 17:13 20.54608 -96.06638 35918 ft 438 kts 262°
2026-04-23 17:14 20.52172 -96.19359 35917 ft 438 kts 262°
2026-04-23 17:14 20.49738 -96.32128 35916 ft 438 kts 263°
2026-04-23 17:15 20.47279 -96.44894 35912 ft 439 kts 262°
2026-04-23 17:15 20.44798 -96.57580 35905 ft 440 kts 262°
2026-04-23 17:16 20.42597 -96.69100 35892 ft 441 kts 262°
2026-04-23 17:16 20.41359 -96.75499 35885 ft 441 kts 262°
2026-04-23 17:17 20.40114 -96.81905 35883 ft 441 kts 262°
2026-04-23 17:17 20.38536 -96.88252 35877 ft 444 kts 257°
2026-04-23 17:18 20.35889 -96.97713 35868 ft 444 kts 257°
2026-04-23 17:19 20.34145 -97.04031 35866 ft 445 kts 257°
2026-04-23 17:19 20.32410 -97.10311 35862 ft 445 kts 257°
2026-04-23 17:20 20.30660 -97.16636 35860 ft 445 kts 257°
2026-04-23 17:20 20.28904 -97.22974 35474 ft 445 kts 257°
2026-04-23 17:21 20.27146 -97.29309 35006 ft 447 kts 257°
2026-04-23 17:21 20.26270 -97.32461 34696 ft 441 kts 257°
2026-04-23 17:21 20.24504 -97.38813 32716 ft 455 kts 257°
2026-04-23 17:22 20.23602 -97.42046 31949 ft 456 kts 257°
2026-04-23 17:22 20.21816 -97.48450 30685 ft 453 kts 257°
2026-04-23 17:23 20.20022 -97.54879 29347 ft 450 kts 257°
2026-04-23 17:23 20.19134 -97.58053 28794 ft 445 kts 257°
2026-04-23 17:23 20.17379 -97.64329 27556 ft 444 kts 257°
2026-04-23 17:24 20.16492 -97.67492 26951 ft 446 kts 257°
2026-04-23 17:24 20.15608 -97.70645 26351 ft 444 kts 257°
2026-04-23 17:24 20.13861 -97.76871 25163 ft 440 kts 257°
2026-04-23 17:25 20.13098 -97.83239 23845 ft 432 kts 272°
2026-04-23 17:25 20.13048 -97.86425 23275 ft 429 kts 272°
2026-04-23 17:26 20.12990 -97.92700 22045 ft 421 kts 272°
2026-04-23 17:26 20.12952 -97.98887 20899 ft 413 kts 271°
2026-04-23 17:27 20.12915 -98.04954 19767 ft 407 kts 271°
2026-04-23 17:27 20.12894 -98.07969 19138 ft 407 kts 271°
2026-04-23 17:27 20.12873 -98.10963 18608 ft 404 kts 271°
2026-04-23 17:27 20.12850 -98.13945 18203 ft 398 kts 271°
2026-04-23 17:28 20.12828 -98.16839 17928 ft 387 kts 271°
2026-04-23 17:28 20.12806 -98.19675 17690 ft 376 kts 270°
2026-04-23 17:28 20.12785 -98.22416 17499 ft 366 kts 271°
2026-04-23 17:28 20.12764 -98.25083 17312 ft 355 kts 271°
2026-04-23 17:29 20.12743 -98.27645 17127 ft 345 kts 271°
2026-04-23 17:29 20.12704 -98.30163 16768 ft 340 kts 267°
2026-04-23 17:29 20.12230 -98.35207 15805 ft 340 kts 266°
2026-04-23 17:30 20.12082 -98.36858 15547 ft 338 kts 265°
2026-04-23 17:30 20.11577 -98.42645 14689 ft 332 kts 265°
2026-04-23 17:30 20.11354 -98.45045 14654 ft 317 kts 265°
2026-04-23 17:31 20.11140 -98.47337 14665 ft 308 kts 265°
2026-04-23 17:31 20.10932 -98.49595 14618 ft 302 kts 265°
2026-04-23 17:31 20.10648 -98.51757 14565 ft 290 kts 253°
2026-04-23 17:31 20.09864 -98.53656 14485 ft 282 kts 246°
2026-04-23 17:32 20.09020 -98.55578 14360 ft 285 kts 246°
2026-04-23 17:32 20.08187 -98.57462 14199 ft 284 kts 245°
2026-04-23 17:32 20.07337 -98.59363 14104 ft 285 kts 245°
2026-04-23 17:32 20.06487 -98.61262 13966 ft 284 kts 245°
2026-04-23 17:33 20.05631 -98.63170 13842 ft 284 kts 245°
2026-04-23 17:33 20.04779 -98.65066 13718 ft 284 kts 245°
2026-04-23 17:33 20.03928 -98.66960 13583 ft 283 kts 245°
2026-04-23 17:33 20.03080 -98.68848 13464 ft 283 kts 245°
2026-04-23 17:34 20.02232 -98.70734 13330 ft 282 kts 245°
2026-04-23 17:34 20.01426 -98.72528 13214 ft 281 kts 245°
2026-04-23 17:34 19.99819 -98.76098 13007 ft 267 kts 245°
2026-04-23 17:35 19.99035 -98.77840 12923 ft 257 kts 245°
2026-04-23 17:35 19.97754 -98.80685 12771 ft 256 kts 245°
2026-04-23 17:35 19.96648 -98.82901 12767 ft 257 kts 242°
2026-04-23 17:36 19.95795 -98.84564 12778 ft 257 kts 243°
2026-04-23 17:36 19.95218 -98.85694 12787 ft 256 kts 243°
2026-04-23 17:36 19.94370 -98.87357 12806 ft 257 kts 242°
2026-04-23 17:36 19.93520 -98.89028 12834 ft 257 kts 242°
2026-04-23 17:37 19.92680 -98.90680 12851 ft 257 kts 243°
2026-04-23 17:37 19.91829 -98.92353 12860 ft 257 kts 243°
2026-04-23 17:37 19.90171 -98.95712 12899 ft 256 kts 249°
2026-04-23 17:38 19.89538 -98.97479 12921 ft 256 kts 250°
2026-04-23 17:38 19.88903 -98.99239 12926 ft 256 kts 250°
2026-04-23 17:38 19.88256 -99.01009 12932 ft 256 kts 249°
2026-04-23 17:38 19.87605 -99.02771 12944 ft 256 kts 249°
2026-04-23 17:39 19.86954 -99.04521 12900 ft 251 kts 249°
2026-04-23 17:39 19.86318 -99.06270 12455 ft 258 kts 250°
2026-04-23 17:39 19.85665 -99.08067 12033 ft 261 kts 250°
2026-04-23 17:39 19.84944 -99.09815 11681 ft 263 kts 237°
2026-04-23 17:40 19.83616 -99.11146 11288 ft 266 kts 211°
2026-04-23 17:40 19.81956 -99.12037 10960 ft 267 kts 209°
2026-04-23 17:40 19.80296 -99.12935 10610 ft 268 kts 208°
2026-04-23 17:40 19.78647 -99.13819 10419 ft 262 kts 208°
2026-04-23 17:41 19.77045 -99.14673 10262 ft 253 kts 208°
2026-04-23 17:41 19.73940 -99.16333 10055 ft 247 kts 208°
2026-04-23 17:41 19.72436 -99.17149 9842 ft 245 kts 208°
2026-04-23 17:42 19.69423 -99.18746 9503 ft 240 kts 206°
2026-04-23 17:42 19.67798 -99.19104 9161 ft 242 kts 174°
2026-04-23 17:42 19.66348 -99.18394 9145 ft 223 kts 136°
2026-04-23 17:43 19.65559 -99.17064 9153 ft 212 kts 109°
2026-04-23 17:43 19.65106 -99.15583 9069 ft 213 kts 102°
2026-04-23 17:43 19.65150 -99.14038 9024 ft 208 kts 78°
2026-04-23 17:43 19.65383 -99.12568 8914 ft 198 kts 80°
2026-04-23 17:44 19.65732 -99.11186 8847 ft 192 kts 62°
2026-04-23 17:44 19.66508 -99.10060 8856 ft 189 kts 46°
2026-04-23 17:44 19.68263 -99.07944 8837 ft 192 kts 47°
2026-04-23 17:45 19.69115 -99.06896 8688 ft 183 kts 48°
2026-04-23 17:45 19.70738 -99.04908 8221 ft 176 kts 48°
2026-04-23 17:45 19.71529 -99.03917 7776 ft 175 kts 46°
2026-04-23 17:46 19.72732 -99.02451 7451 ft 175 kts 46°
2026-04-23 17:46 19.73123 -99.01971 7401 ft 165 kts 45°
2026-04-23 17:46 19.73811 -99.01147 7378 ft 137 kts 49°
2026-04-23 17:47 19.74329 -99.00516 7380 ft 89 kts 49°
2026-04-23 17:47 19.74595 -99.00189 7379 ft 51 kts 49°
2026-04-23 17:47 19.74926 -98.99811 7381 ft 5 kts 344°
2026-04-23 17:48 19.74969 -98.99842 7381 ft 11 kts 316°
2026-04-23 17:48 19.75025 -98.99893 7380 ft 11 kts 320°
2026-04-23 17:48 19.75068 -98.99953 7380 ft 11 kts 283°
2026-04-23 17:48 19.75043 -99.00006 7379 ft 11 kts 221°
2026-04-23 17:49 19.74968 -99.00091 7379 ft 19 kts 229°
2026-04-23 17:49 19.74873 -99.00205 7379 ft 22 kts 227°
2026-04-23 17:49 19.74751 -99.00350 7379 ft 32 kts 228°
2026-04-23 17:49 19.74604 -99.00535 7379 ft 32 kts 229°
2026-04-23 17:50 19.74466 -99.00706 7379 ft 29 kts 229°
2026-04-23 17:50 19.74238 -99.00983 7380 ft 21 kts 229°
2026-04-23 17:50 19.74147 -99.01095 7379 ft 18 kts 229°
2026-04-23 17:51 19.74070 -99.01190 7379 ft 15 kts 229°
2026-04-23 17:51 19.74004 -99.01269 7379 ft 15 kts 229°
2026-04-23 17:51 19.73841 -99.01462 7378 ft 20 kts 227°
2026-04-23 17:52 19.73749 -99.01580 7379 ft 21 kts 231°
2026-04-23 17:52 19.73531 -99.01840 7379 ft 26 kts 228°
2026-04-23 17:52 19.73452 -99.01959 7380 ft 6 kts 266°
2026-04-23 17:53 19.73492 -99.02029 7379 ft 8 kts 320°
2026-04-23 17:53 19.73531 -99.02064 7379 ft 1 kts 320°
2026-04-23 17:53 19.73535 -99.02068 7379 ft 2 kts 319°
2026-04-23 17:54 19.73553 -99.02084 7379 ft 4 kts 319°
2026-04-23 17:54 19.73557 -99.02088 7379 ft 0 kts 319°